Flag for Canada Weather past 2 weeks in Dawson Creek, British Columbia, Canada

Now
54 °F

Cool.


Feels Like: 51 °F
Forecast: 49 / 58 °F
Wind: 9 mph from Southwest

Location: Dawson Creek Airport

Current Time: Sep 1, 2014 at 1:24:57 AM

Latest Report: Sep 1, 2014 at 1:00 AM


Visibility: 9 mi

Pressure: 29.77 "Hg

Humidity: 58%

Dew point: 39 °F

Location of Dawson CreekLocation

Historic Weather in Dawson Creek — Graph

°F

Dawson Creek temperature yesterday

Maximum temperature yesterday: 68 °F (at 2:00 PM)
Minimum temperature yesterday: 46 °F (at 6:00 AM)
Average temperature yesterday: 58 °F

Past Weeks' High & Low Weather Summary

 TemperatureHumidityPressure
High84 °F (Aug 17, 4:00 PM)100% (Aug 21, 4:00 AM)30.41 "Hg (Aug 21, 4:00 AM)
Low32 °F (Aug 23, 3:00 AM)18% (Aug 17, 4:00 PM)29.62 "Hg (Aug 30, 4:00 PM)
Average58 °F58%29.95 "Hg
* Reported Midnight between Aug 16 and Aug 17 — Midnight between Aug 31 and Sep 1, Dawson Creek, Weather by CustomWeather, © 2014

Note: Actual official high and low records may vary slightly from our data, if they occured in-between our weather recording intervals... More about our weather records

Advertising

Dawson Creek weather history for previous 24 hours

 ConditionsComfort  
Time TempWeatherWind HumidityBarometerVisibility
12:00 AM
Sep 1
54 °FCool.9 mph58%29.77 "Hg9 mi
11:00 PM
Aug 31
55 °FRefreshingly cool.12 mph55%29.76 "Hg9 mi
10:00 PM57 °FRefreshingly cool.12 mph51%29.77 "Hg9 mi
9:00 PM57 °FRefreshingly cool.9 mph51%29.78 "Hg9 mi
8:00 PM59 °FRefreshingly cool.18 mph48%29.78 "Hg9 mi
7:00 PM59 °FRefreshingly cool.17 mph45%29.78 "Hg9 mi
6:00 PM64 °FMild.17 mph37%29.76 "Hg9 mi
5:00 PM66 °FMild.15 mph30%29.75 "Hg9 mi
4:00 PM66 °FMild.18 mph32%29.74 "Hg9 mi
3:00 PM68 °FMild.16 mph30%29.75 "Hg9 mi
2:00 PM68 °FMild.16 mph28%29.75 "Hg9 mi
1:00 PM66 °FMild.17 mph30%29.77 "Hg9 mi
12:00 PM64 °FMild.13 mph34%29.77 "Hg9 mi
11:00 AM63 °FMild.14 mph39%29.77 "Hg9 mi
10:00 AM61 °FRefreshingly cool.17 mph42%29.76 "Hg9 mi
9:00 AM57 °FRefreshingly cool.18 mph51%29.76 "Hg9 mi
8:00 AM55 °FRefreshingly cool.14 mph55%29.76 "Hg9 mi
7:00 AM48 °FCool.5 mph71%29.75 "Hg9 mi
6:00 AM46 °FCool.5 mph71%29.74 "Hg9 mi
5:00 AM50 °FCool.9 mph67%29.72 "Hg9 mi
4:00 AM52 °FCool.10 mph62%29.70 "Hg9 mi
3:00 AM48 °FCool.6 mph71%29.70 "Hg9 mi
2:00 AM52 °FCool.8 mph62%29.68 "Hg9 mi
1:00 AM52 °FCool.7 mph62%29.67 "Hg9 mi
Weather by CustomWeather, © 2014

See weather overviewHow to use our weather pages